Regional Weather Roundup
Issued by NWS

Home | Current Version | Previous Version | Graphics & Text | Print | Product List | Glossary On
Versions: 1 2 3 4 5 6 7 8 9 10 11 12 13 14 15 16 17 18 19 20 21 22 23 24 25 26 27 28 29 30 31 32 33 34 35 36 37 38 39 40 41 42 43 44 45 46 47 48 49 50
895
ASUS44 KLIX 170601
RWRLA
LOUISIANA WEATHER ROUNDUP
NATIONAL WEATHER SERVICE NEW ORLEANS LA
100 AM CDT THU APR 17 2014

NOTE: "FAIR" INDICATES FEW OR NO CLOUDS BELOW 12,000 FEET WITH NO
      SIGNIFICANT WEATHER AND/OR OBSTRUCTIONS TO VISIBILITY.
      SKY/WX - SKY CONDITION AND SIGNIFICANT WEATHER.
      TMP - AIR TEMPERATURE.    DP   - DEWPOINT TEMPERATURE.
      RH  - RELATIVE HUMIDITY.  PRES - PRESSURE.
      HX  - HEAT INDEX.         WCI  - WIND CHILL INDEX.

*  THESE STATIONS ARE NOT NWS OR FAA STATIONS AND ARE NOT UNDER
   NWS QUALITY CONTROL.

LAZ040-048-061>063-065-066-069-170700-
SOUTHEAST LOUISIANA

CITY           SKY/WX    TMP DP  RH WIND       PRES   REMARKS
N.O. AUDUBON     N/A     56  46  69 MISG        N/A
6HR MIN TEMP:  52; 6HR MAX TEMP:  60;

N.O. INTL ARPT FAIR      51  45  79 CALM      30.15F
6HR MIN TEMP:  51; 6HR MAX TEMP:  60;

N.O. LAKEFRONT FAIR      56  49  77 E7        30.15F
6HR MIN TEMP:  53; 6HR MAX TEMP:  58;

N.O. DOWNTOWN* FAIR      57  45  62 SE6       30.15F
6HR MIN TEMP:  55; 6HR MAX TEMP:  61;

SLIDELL        FAIR      45  42  89 CALM      30.15F
6HR MIN TEMP:  45; 6HR MAX TEMP:  57;

BATON ROUGE    FAIR      48  43  82 E5        30.16S
6HR MIN TEMP:  48; 6HR MAX TEMP:  61;

BOOTHVILLE     CLOUDY    61  49  64 SE10      30.14F
6HR MIN TEMP:  56; 6HR MAX TEMP:  61;

BELLE CHASSE   MOCLDY    49  46  90 CALM      30.14F
6HR MIN TEMP:  46; 6HR MAX TEMP:  57;

BOGALUSA*        N/A     44  41  89 CALM      30.18F
6HR MIN TEMP:  44; 6HR MAX TEMP:  63;

GALLIANO*      NOT AVBL
NEW ROADS*     NOT AVBL
GONZALES*      FAIR      48  47  99 CALM      30.16S
6HR MIN TEMP:  47; 6HR MAX TEMP:  60;

HAMMOND*       NOT AVBL
HOUMA*         NOT AVBL
PORT FOURCHON* CLOUDY    63  50  63 SE13G22   30.14F

$$

LAZ041-044-053-054-170700-
SOUTHWEST LOUISIANA

CITY           SKY/WX    TMP DP  RH WIND       PRES   REMARKS
LAKE CHARLES   FAIR      53  49  86 E6        30.10S
6HR MIN TEMP:  51; 6HR MAX TEMP:  61;

LAFAYETTE      FAIR      52  50  93 CALM      30.13F
6HR MIN TEMP:  52; 6HR MAX TEMP:  62;

PATTERSON      FAIR      50  45  81 E7          N/A
6HR MIN TEMP:  50; 6HR MAX TEMP:  63;

SALT POINT       N/A     55  49  80 VRB3      30.13F
6HR MIN TEMP:  55; 6HR MAX TEMP:  64;

NEW IBERIA     FAIR      51  47  86 SE7       30.14F
6HR MIN TEMP:  51; 6HR MAX TEMP:  62;

CHENAULT AIRPK NOT AVBL

$$

LAZ027-028-170700-
CENTRAL LOUISIANA

CITY           SKY/WX    TMP DP  RH WIND       PRES   REMARKS
FORT POLK      FAIR      49  45  86 CALM      30.11R
6HR MIN TEMP:  46; 6HR MAX TEMP:  61;

ALEXANDRIA INT FAIR      48  45  89 SE5       30.12R
6HR MIN TEMP:  48; 6HR MAX TEMP:  60;

ALEXANDRIA     NOT AVBL

$$

LAZ001-002-170700-
NORTHWEST LOUISIANA

CITY           SKY/WX    TMP DP  RH WIND       PRES   REMARKS
SHREVEPORT     FAIR      48  40  73 CALM      30.12R
6HR MIN TEMP:  48; 6HR MAX TEMP:  61;

BARKSDALE AFB  FAIR      47  39  72 E2        30.13R
6HR MIN TEMP:  47; 6HR MAX TEMP:  62;

DTN SHREVEPORT FAIR      46  40  79 E3        30.13R
6HR MIN TEMP:  44; 6HR MAX TEMP:  60;


$$

LAZ014-016-170700-
NORTHEAST LOUISIANA

CITY           SKY/WX    TMP DP  RH WIND       PRES   REMARKS
MONROE         FAIR      44  41  89 CALM      30.16R
6HR MIN TEMP:  44; 6HR MAX TEMP:  59;

TALLULAH       FAIR      52  44  74 E3        30.17R
6HR MIN TEMP:  51; 6HR MAX TEMP:  63;


$$




USA.gov is the U.S. government's official web portal to all federal, state and local government web resources and services.